Location: Newark
(42.9260°N, 89.3850°W)
Time: 13:37:30
(UTC+00:00)

STARLINK 1034 - Pass Details

Date: 11 December 2019
Orbit: 445 x 447 km, 53.0° (Epoch: 19 January)

Event Time Altitude Azimuth Distance (km) Brightness Sun altitude
Exits shadow 11:15:54 32° 175° (S) 726 4.3 -21.6°
Drops below altitude 10° 11:18:02 10° 149° (SSE) 1,469 6.4 -21.2°
Sets 11:20:09 0° 142° (SE) 2,326 7.6 -20.8°
